Tracking 30289 objects as of 29-Apr-2025
HD Live streaming from Space Station
objects crossing your sky now

UME 2 (ISS-B)

Track UME 2 (ISS-B) now!
10-day predictions
UME 2 (ISS-B) is classified as:


NORAD ID: 10674
Int'l Code: 1978-018A
Perigee: 979.4 km
Apogee: 1,225.9 km
Inclination: 69.4 °
Period: 107.2 minutes
Semi major axis: 7473 km
RCS: 1.4219 m2 (large)
Launch date: February 16, 1978
Source: Japan (JPN)
Launch site: TANEGASHIMA SPACE CENTER (TNSTA)
Your satellite tracking list
Your tracking list is empty




NASA's NSSDC Master Catalog

Two Line Element Set (TLE):
1 10674U 78018A   25118.96551330 -.00000005  00000-0  72845-4 0  9997
2 10674  69.3654   6.4928 0164927 195.5040 176.5513 13.43695755314997
Source of the keplerian elements: AFSPC